Home > Weather > State College > Past weeks

Flag for USA Past Weather in State College, Pennsylvania, USA — Yesterday and Last 2 Weeks

Now
72 °F

Passing clouds.


Feels Like: 77 °F
Forecast: 55 / 77 °F
Wind: No wind

Location: University Park Airport

Current Time: Jun 30, 2016 at 11:57:55 AM

Latest Report: Jun 30, 2016 at 10:53 AM


Visibility: 10 mi

Pressure: 30.10 "Hg

Humidity: 50%

Dew Point: 52 °F

Location of State CollegeLocation

Past Weather in State College — Graph

°F

State College Temperature Yesterday

Maximum temperature yesterday: 72 °F (at 2:53 PM)
Minimum temperature yesterday: 57 °F (at 5:53 AM)
Average temperature yesterday: 64 °F

High & Low Weather Summary for the Past Weeks

 TemperatureHumidityPressure
High86 °F (Jun 20, 2:53 PM)100% (Jun 16, 8:53 AM)30.38 "Hg (Jun 16, 8:53 AM)
Low53 °F (Jun 30, 5:35 AM)28% (Jun 18, 2:53 PM)29.73 "Hg (Jun 16, 3:53 PM)
Average68 °F74%30.04 "Hg
* Reported Jun 15 10:53 AM — Jun 30 10:53 AM, State College, Weather by CustomWeather, © 2016

Note: Actual official high and low records may vary slightly from our data, if they occured in-between our weather recording intervals... More about our weather records

Advertising

State College Weather History for the Previous 24 Hours

Scroll right to see more
 ConditionsComfort  
Time TempWeatherWind HumidityBarometerVisibility
10:53 AM
Thu, Jun 30
72 °FPassing clouds.No wind50%30.10 "Hg10 mi
9:53 AM68 °FScattered clouds.No wind64%30.10 "Hg10 mi
8:53 AM64 °FScattered clouds.No wind73%30.09 "Hg10 mi
7:53 AM59 °FSunny.No wind88%30.09 "Hg10 mi
6:53 AM55 °FSunny.No wind94%30.09 "Hg10 mi
5:53 AM54 °FClear.No wind94%30.07 "Hg10 mi
5:35 AM53 °FClear.No wind96%30.07 "Hg10 mi
5:15 AM54 °FClear.No wind96%30.07 "Hg10 mi
4:55 AM54 °FPassing clouds.No wind95%30.07 "Hg10 mi
4:35 AM55 °FPassing clouds.No wind94%30.07 "Hg10 mi
4:15 AM55 °FPassing clouds.No wind94%30.07 "Hg10 mi
3:55 AM54 °FPassing clouds.No wind92%30.07 "Hg10 mi
3:35 AM55 °FPassing clouds.No wind93%30.07 "Hg10 mi
3:15 AM55 °FClear.No wind93%30.07 "Hg10 mi
2:55 AM55 °FClear.No wind92%30.07 "Hg10 mi
2:35 AM56 °FClear.No wind88%30.06 "Hg10 mi
2:15 AM56 °FPassing clouds.No wind90%30.07 "Hg10 mi
1:55 AM58 °FPassing clouds.No wind84%30.07 "Hg10 mi
1:35 AM57 °FClear.No wind88%30.07 "Hg10 mi
1:15 AM59 °FClear.No wind84%30.07 "Hg10 mi
12:55 AM57 °FPassing clouds.3 mph88%30.06 "Hg10 mi
12:35 AM58 °FPassing clouds.No wind83%30.06 "Hg10 mi
12:15 AM62 °FPassing clouds.6 mph75%30.05 "Hg10 mi
11:55 PM
Wed, Jun 29
60 °FPassing clouds.No wind79%30.05 "Hg10 mi
11:35 PM59 °FClear.3 mph81%30.04 "Hg10 mi
11:15 PM60 °FPassing clouds.No wind77%30.05 "Hg10 mi
10:55 PM62 °FPassing clouds.5 mph72%30.04 "Hg10 mi
10:35 PM61 °FClear.No wind75%30.04 "Hg10 mi
10:15 PM60 °FClear.No wind77%30.04 "Hg10 mi
9:55 PM65 °FPassing clouds.5 mph64%30.04 "Hg10 mi
8:53 PM66 °FSunny.7 mph64%30.02 "Hg10 mi
7:53 PM70 °FSunny.7 mph53%30.02 "Hg10 mi
6:53 PM72 °FScattered clouds.7 mph53%30.01 "Hg10 mi
5:53 PM72 °FScattered clouds.8 mph53%30.00 "Hg10 mi
4:53 PM72 °FBroken clouds.8 mph53%30.01 "Hg10 mi
3:53 PM70 °FBroken clouds.7 mph60%30.01 "Hg10 mi
2:53 PM72 °FMore clouds than sun.7 mph53%30.01 "Hg10 mi
1:53 PM70 °FMore clouds than sun.10 mph57%30.02 "Hg10 mi
12:53 PM66 °FBroken clouds.10 mph64%30.02 "Hg10 mi
11:53 AM66 °FMore clouds than sun.12 mph64%30.03 "Hg10 mi
Weather by CustomWeather, © 2016

See weather overviewHow to use our weather pages